Total_Precipitation_Accumulation
0.43 0.69 0.97 1.05 1.06 0.96 0.80 0.75 0.75 0.70 0.67 0.71 0.71 0.73 0.77 0.77 0.76 0.69 0.56 0.50 0.47 0.43 0.46 0.46 0.48 0.48 0.45 0.41 0.41 0.47 0.53 0.64 0.76 0.96 1.25 1.65 1.86 1.99 2.00 2.02 1.92 1.71 1.49 1.51
0.54 0.55 0.47 0.55 0.60 0.68 0.67 0.71 0.71 0.66 0.59 0.59 0.55 0.56 0.60 0.59 0.51 0.48 0.43 0.40 0.41 0.37 0.40 0.36 0.36 0.36 0.34 0.32 0.29 0.39 0.45 0.56 0.71 0.98 1.27 1.58 1.92 1.99 2.01 2.02 1.98 1.85 1.73 1.73
0.47 0.42 0.39 0.51 0.57 0.62 0.64 0.70 0.68 0.70 0.66 0.58 0.52 0.54 0.58 0.53 0.43 0.37 0.35 0.34 0.35 0.32 0.35 0.33 0.32 0.31 0.28 0.25 0.22 0.30 0.36 0.51 0.79 1.13 1.44 1.62 1.89 1.99 2.04 2.00 2.02 2.03 1.98 1.89
0.53 0.40 0.40 0.50 0.51 0.50 0.68 0.48 0.44 0.49 0.69 0.71 0.54 0.65 0.56 0.46 0.49 0.45 0.39 0.36 0.35 0.35 0.32 0.32 0.34 0.31 0.25 0.21 0.20 0.25 0.33 0.53 0.87 1.20 1.45 1.67 2.02 2.11 2.06 2.09 2.09 2.09 2.11 2.08
0.52 0.37 0.38 0.43 0.38 0.36 0.49 0.39 0.39 0.43 0.56 0.61 0.47 0.48 0.51 0.45 0.51 0.52 0.46 0.44 0.38 0.34 0.28 0.27 0.27 0.27 0.26 0.25 0.26 0.31 0.44 0.65 0.92 1.14 1.39 1.72 1.95 2.06 2.19 2.12 2.09 2.10 2.17 2.18
0.44 0.31 0.30 0.32 0.31 0.29 0.33 0.41 0.46 0.46 0.53 0.58 0.33 0.40 0.52 0.46 0.39 0.41 0.43 0.42 0.35 0.31 0.29 0.28 0.29 0.29 0.30 0.31 0.37 0.47 0.62 0.75 0.97 1.16 1.38 1.55 1.77 1.89 2.02 2.11 2.06 2.05 2.12 2.22
0.40 0.31 0.24 0.21 0.30 0.30 0.33 0.57 0.78 0.76 0.76 0.61 0.28 0.39 0.53 0.39 0.30 0.30 0.33 0.36 0.33 0.34 0.35 0.39 0.41 0.46 0.53 0.56 0.59 0.67 0.77 0.87 0.99 1.11 1.21 1.27 1.42 1.56 1.59 1.76 1.85 1.97 1.98 2.05
0.34 0.33 0.21 0.17 0.24 0.30 0.29 0.46 0.73 0.78 0.68 0.54 0.40 0.58 0.58 0.39 0.32 0.32 0.32 0.38 0.39 0.46 0.52 0.63 0.71 0.78 0.85 0.85 0.85 0.91 0.96 0.94 0.95 1.01 1.07 1.09 1.16 1.23 1.29 1.32 1.35 1.53 1.69 1.73
0.30 0.29 0.15 0.15 0.19 0.23 0.26 0.33 0.40 0.52 0.44 0.47 0.48 0.61 0.55 0.41 0.39 0.39 0.40 0.45 0.53 0.70 0.79 0.89 1.00 1.01 1.00 0.99 0.95 0.96 0.97 0.95 0.94 0.96 0.95 0.90 0.88 0.94 1.05 1.06 1.13 1.18 1.27 1.29
0.28 0.30 0.17 0.15 0.20 0.20 0.23 0.34 0.46 0.70 0.80 0.71 0.60 0.71 0.71 0.57 0.47 0.44 0.49 0.59 0.77 1.02 1.15 1.27 1.35 1.27 1.18 1.18 1.22 1.11 1.00 0.93 0.89 0.90 0.91 0.83 0.79 0.85 0.89 0.88 0.94 0.92 0.94 0.95
0.23 0.33 0.26 0.17 0.17 0.20 0.25 0.36 0.51 0.75 0.85 1.00 1.06 1.12 0.85 0.69 0.65 0.73 0.85 0.94 1.15 1.40 1.55 1.64 1.65 1.55 1.35 1.22 1.21 1.14 1.01 0.89 0.78 0.76 0.83 0.82 0.77 0.80 0.84 0.83 0.78 0.71 0.74 0.81
0.21 0.34 0.33 0.19 0.17 0.21 0.34 0.50 0.68 1.10 1.09 0.98 1.17 1.30 0.95 0.78 0.78 0.81 0.89 1.04 1.26 1.37 1.44 1.48 1.43 1.41 1.30 1.20 1.10 1.06 0.94 0.79 0.72 0.76 0.79 0.80 0.72 0.68 0.72 0.73 0.76 0.66 0.61 0.64
0.28 0.41 0.51 0.44 0.41 0.41 0.47 0.53 0.64 0.78 0.98 1.07 1.27 1.43 1.01 0.78 0.76 0.81 0.94 1.02 1.06 1.04 1.12 1.21 1.25 1.14 1.09 1.02 0.96 1.04 1.05 0.92 0.89 0.91 0.97 0.89 0.74 0.70 0.70 0.69 0.74 0.68 0.63 0.65
0.33 0.40 0.50 0.61 0.60 0.60 0.60 0.53 0.51 0.65 0.91 0.98 1.05 1.10 0.85 0.71 0.69 0.72 0.80 0.85 0.90 0.90 0.94 0.97 1.02 0.97 0.98 0.93 0.89 0.99 1.03 1.03 1.10 1.16 1.13 0.96 0.82 0.74 0.69 0.66 0.67 0.67 0.67 0.68
0.26 0.27 0.26 0.26 0.25 0.33 0.51 0.62 0.56 0.60 0.70 0.94 0.82 0.67 0.62 0.57 0.60 0.62 0.66 0.70 0.70 0.74 0.72 0.68 0.66 0.67 0.72 0.73 0.69 0.74 0.82 0.91 1.05 1.12 1.01 0.88 0.75 0.65 0.60 0.63 0.60 0.64 0.70 0.70
0.18 0.17 0.14 0.12 0.12 0.21 0.44 0.54 0.55 0.55 0.55 0.55 0.46 0.44 0.36 0.34 0.40 0.41 0.44 0.44 0.43 0.47 0.47 0.45 0.41 0.42 0.47 0.43 0.44 0.48 0.57 0.73 0.92 1.01 0.89 0.73 0.65 0.63 0.57 0.55 0.52 0.52 0.55 0.59
0.15 0.19 0.22 0.17 0.14 0.22 0.44 0.45 0.50 0.38 0.25 0.22 0.26 0.27 0.20 0.23 0.31 0.32 0.37 0.38 0.33 0.33 0.35 0.36 0.36 0.35 0.38 0.35 0.36 0.44 0.50 0.62 0.72 0.75 0.70 0.59 0.53 0.49 0.46 0.44 0.45 0.47 0.48 0.51
0.12 0.22 0.33 0.27 0.27 0.48 0.64 0.49 0.42 0.36 0.21 0.14 0.14 0.13 0.14 0.19 0.25 0.24 0.30 0.36 0.31 0.28 0.30 0.30 0.31 0.34 0.38 0.42 0.43 0.51 0.56 0.56 0.60 0.66 0.66 0.56 0.48 0.44 0.42 0.39 0.41 0.49 0.49 0.48
0.18 0.25 0.37 0.36 0.39 0.48 0.51 0.35 0.32 0.40 0.38 0.16 0.12 0.11 0.12 0.14 0.19 0.17 0.19 0.24 0.23 0.20 0.18 0.18 0.19 0.20 0.24 0.29 0.33 0.35 0.35 0.37 0.39 0.44 0.49 0.45 0.37 0.38 0.42 0.40 0.44 0.48 0.48 0.52
0.30 0.29 0.40 0.42 0.44 0.53 0.42 0.20 0.16 0.30 0.52 0.22 0.10 0.07 0.06 0.07 0.13 0.11 0.10 0.10 0.11 0.11 0.09 0.08 0.09 0.09 0.09 0.12 0.19 0.21 0.19 0.17 0.17 0.20 0.26 0.28 0.26 0.30 0.36 0.45 0.50 0.48 0.45 0.50
0.22 0.28 0.39 0.51 0.63 0.74 0.52 0.25 0.18 0.40 0.52 0.21 0.07 0.04 0.04 0.04 0.04 0.05 0.07 0.08 0.06 0.07 0.06 0.06 0.06 0.07 0.07 0.08 0.11 0.13 0.12 0.10 0.10 0.11 0.13 0.16 0.20 0.25 0.34 0.41 0.39 0.38 0.40 0.43
0.31 0.43 0.55 0.68 0.88 1.03 0.67 0.43 0.38 0.35 0.22 0.11 0.05 0.03 0.04 0.04 0.04 0.05 0.07 0.07 0.06 0.06 0.06 0.05 0.06 0.06 0.07 0.07 0.07 0.08 0.09 0.09 0.10 0.09 0.09 0.11 0.13 0.16 0.20 0.28 0.32 0.33 0.35 0.35
0.31 0.56 0.73 0.72 0.76 0.69 0.50 0.40 0.30 0.21 0.14 0.06 0.04 0.04 0.03 0.03 0.03 0.04 0.04 0.05 0.05 0.04 0.05 0.05 0.07 0.07 0.07 0.07 0.06 0.07 0.08 0.11 0.12 0.10 0.08 0.09 0.11 0.12 0.15 0.21 0.26 0.30 0.33 0.34
0.15 0.21 0.25 0.28 0.31 0.28 0.23 0.19 0.15 0.11 0.08 0.03 0.03 0.03 0.04 0.03 0.03 0.04 0.04 0.04 0.05 0.04 0.05 0.06 0.10 0.10 0.09 0.08 0.09 0.10 0.10 0.11 0.13 0.11 0.10 0.10 0.12 0.12 0.12 0.16 0.23 0.31 0.31 0.27
0.13 0.11 0.11 0.13 0.13 0.13 0.12 0.11 0.10 0.08 0.04 0.03 0.02 0.03 0.04 0.04 0.04 0.04 0.05 0.08 0.08 0.05 0.04 0.06 0.09 0.11 0.11 0.10 0.10 0.11 0.11 0.11 0.11 0.10 0.10 0.10 0.11 0.12 0.11 0.11 0.14 0.20 0.23 0.21
0.12 0.13 0.13 0.11 0.08 0.08 0.09 0.07 0.06 0.06 0.04 0.04 0.03 0.03 0.04 0.04 0.06 0.08 0.07 0.09 0.11 0.07 0.05 0.05 0.06 0.08 0.10 0.10 0.10 0.10 0.12 0.12 0.12 0.12 0.12 0.12 0.11 0.12 0.10 0.10 0.11 0.13 0.13 0.14